Terminal Aerodrome Forecast
Issued by NWS Pueblo, CO

Home | Current Version | Previous Version | Text Only | Print | Product List | Glossary On
Versions: 1 2 3 4 5 6 7 8 9 10 11 12 13 14 15 16 17 18 19 20 21 22 23 24 25 26 27 28 29 30 31 32 33 34 35 36 37 38 39 40 41 42 43 44 45 46 47 48 49 50
000
FTUS45 KPUB 301233 AAA
TAFPUB
TAF AMD
KPUB 301233Z 3013/0112 34015G25KT P6SM SCT080 BKN200
     FM301500 35025G40KT P6SM SCT160
     FM010100 36015G25KT P6SM SCT170
     FM010300 31009KT P6SM SCT170=

USA.gov is the U.S. government's official web portal to all federal, state and local government web resources and services.